[[{"header":{"parameterUnit":"m.s-1","parameterCategory":1,"la1":30.2991,"la2":30.254,"lo1":-89.0895,"lo2":-89.0444,"dy":0.0017,"dx":0.0017,"nx":28,"ny":28,"refTime":"2024-02-22T03:00:00:Z","depth":0,"parameterNumber":2,"parameterNumberName":"U-component_of_WINDS"},"data":[0,0,0,0,0,0,0,0,0,0,0,0,0,0,0,0,0,0,0,0,0,0,0,0,0,0,0,0,0,0,0,0,0,0,0,0,0,0,0,0,0,0,0,0,0,0,0,0,0,0,0,0,0,0,0,0,0,0,2.6655,2.6655,0,2.6702,2.6703,2.6703,2.667,2.6669,2.6667,2.6666,2.6721,2.6724,2.6726,0,0,0,0,0,0,0,0,0,0,0,0,0,2.6542,2.6544,2.6654,2.6655,2.6656,2.6702,2.6703,2.6703,2.6671,2.6669,2.6667,2.6665,2.672,2.6723,2.6727,0,0,0,0,0,0,0,0,0,0,0,0,0,2.6591,2.6545,2.6654,2.6645,2.6644,2.6702,2.6703,2.6704,2.6671,2.6669,2.6666,2.6664,2.6719,2.6723,2.6727,2.6799,0,0,2.674,2.6742,0,0,0,0,0,0,0,0,2.6588,2.6595,2.6646,2.6645,2.6645,2.6678,2.6683,2.6736,2.6672,2.6661,2.6666,2.6663,2.6709,2.6714,2.6728,2.6801,2.6804,2.6741,2.6743,2.6745,2.6746,0,0,0,0,0,0,0,2.6584,2.6592,2.6674,2.6646,2.6646,2.664,2.6645,2.6693,2.6697,2.6662,2.6659,2.6665,2.6708,2.6724,2.6729,2.6805,2.6741,2.6744,2.6747,2.6749,2.6942,2.6944,0,0,0,0,0,0,2.6581,2.659,2.6672,2.6675,2.661,2.6644,2.6649,2.667,2.6696,2.6698,2.6667,2.6664,2.6718,2.6724,2.6731,2.6818,2.6745,2.6749,2.6752,2.6939,2.6943,2.6945,0,0,0,0,0,0,2.6579,2.6589,2.667,2.6632,2.6642,2.6648,2.6672,2.6672,2.6687,2.67,2.6702,2.6682,2.6716,2.6725,2.6782,2.6819,2.6751,2.6755,2.6936,2.694,2.6944,2.6991,0,0,0,0,0,0,2.6576,2.6588,2.6613,2.6633,2.6644,2.6719,2.6674,2.6674,2.6694,2.669,2.6714,2.6717,2.6715,2.6776,2.6787,2.6824,2.6758,2.6933,2.6938,2.6943,2.6987,2.6996,2.7005,0,0,0,0,0,2.6572,2.6626,2.6615,2.6625,2.6675,2.6721,2.6728,2.6723,2.6697,2.6724,2.6733,2.6716,2.6813,2.6782,2.6794,2.6833,2.6931,2.6937,2.6942,2.6982,2.6994,2.7004,0,0,0,0,0,0,2.6612,2.6628,2.6616,2.6677,2.6698,2.6715,2.6749,2.6735,2.6765,2.676,2.6755,2.6761,2.6822,2.6833,2.6798,2.6905,2.6868,2.6877,2.6895,2.6906,2.6915,2.6912,2.6762,0,0,0,0,0,2.6628,2.6662,2.6674,2.6728,2.6738,2.6742,2.6762,2.6756,2.6778,2.6787,2.68,2.6824,2.686,2.6884,2.6917,2.6988,2.6994,2.7021,2.703,2.7037,2.7045,2.7085,2.7098,2.6964,2.6964,2.6964,0,0,2.6662,2.6675,2.6696,2.6736,2.6751,2.6788,2.6749,2.679,2.6818,2.6794,2.6848,2.6859,2.6886,2.695,2.698,2.6962,2.7083,2.7045,2.7051,2.7054,2.7092,2.7105,2.7116,2.6968,2.6967,2.6967,0,0,2.6742,2.6754,2.68,2.6816,2.6839,2.6842,2.6853,2.6873,2.6878,2.6933,2.6916,2.6951,2.7013,2.7032,2.7051,2.7141,2.7127,2.7152,2.72,2.7239,2.725,2.7259,2.7292,2.7304,2.7159,2.716,2.716,0,2.6781,2.6834,2.6826,2.6868,2.6888,2.6866,2.6914,2.6931,2.6965,2.698,2.6959,2.7037,2.7053,2.7123,2.7145,2.716,2.7175,2.7149,2.7248,2.7258,2.7266,2.7298,2.7311,2.7163,2.7162,2.7162,2.7162,0,2.6883,2.692,2.6955,2.6986,2.701,2.7055,2.7056,2.7081,2.7074,2.708,2.7137,2.7156,2.7194,2.721,2.7204,2.728,2.7269,2.7248,2.7212,2.7282,2.7312,2.7324,2.7167,2.7166,2.7165,2.7164,0,0,2.6989,2.7016,2.7029,2.7044,2.7069,2.7099,2.7144,2.718,2.7202,2.7227,2.7266,2.732,2.7301,2.7322,2.7319,2.7353,2.7425,2.7329,2.733,2.7347,2.7512,2.7528,2.7542,2.7416,2.7418,2.742,2.751,0,2.7071,2.7147,2.7143,2.7216,2.7252,2.7233,2.7273,2.7294,2.7301,2.7334,2.7342,2.7381,2.7353,2.7365,2.7398,2.7409,2.7459,2.7403,2.7455,2.7457,2.7449,2.7557,2.7574,2.7658,2.7522,2.7524,2.7525,0,2.7177,2.7204,2.728,2.7301,2.7316,2.7351,2.7385,2.7416,2.7441,2.7443,2.7467,2.7459,2.7507,2.7469,2.7538,2.75,2.7521,2.753,2.7534,2.7539,2.7496,2.7567,2.7684,2.7697,2.7544,2.7542,2.7541,0,2.7248,2.7304,2.7357,2.737,2.7396,2.7422,2.7434,2.7456,2.7478,2.7508,2.7523,2.7559,2.7579,2.7608,2.7611,2.7582,2.7681,2.7642,2.7686,2.7686,2.7708,2.7706,2.7831,2.772,2.772,2.772,2.772,0,2.734,2.7388,2.7389,2.7422,2.7476,2.7472,2.7526,2.7536,2.7556,2.7593,2.7579,2.7614,2.7615,2.7651,2.7654,2.7711,2.772,2.7726,2.7726,2.7727,2.7727,2.7741,2.7736,2.7723,2.7723,2.7722,2.7721,0,2.7429,2.7431,2.7488,2.7508,2.7514,2.7553,2.7571,2.7604,2.761,2.7656,2.7667,2.7677,2.772,2.7725,2.7775,2.7777,2.7846,2.784,2.7837,2.7836,2.788,2.7877,2.802,2.8039,2.7915,2.7916,2.7917,0,2.7488,2.7524,2.7548,2.757,2.7583,2.762,2.7643,2.7641,2.7665,2.7697,2.7727,2.7767,2.7799,2.7869,2.7882,2.7921,2.7916,2.7964,2.7922,2.7923,2.7918,2.7916,2.7921,2.7972,2.7973,2.7975,2.7975,0,2.7593,2.7593,2.7624,2.7658,2.7685,2.7711,2.7736,2.7756,2.7758,2.7787,2.7829,2.7854,2.7905,2.7947,2.7985,2.8,2.7989,2.7988,2.8001,2.8003,2.8,2.8003,2.786,2.7985,2.7984,2.7984,2.7983,2.7983,2.7669,2.7701,2.7723,2.776,2.7778,2.7802,2.7834,2.7844,2.7879,2.7919,2.7916,2.7964,2.799,2.804,2.8058,2.8097,2.8081,2.8099,2.8104,2.8108,2.8113,2.7994,2.8104,2.8104,2.8103,2.8103,2.8103,0,2.7774,2.7788,2.7821,2.7856,2.7886,2.7871,2.7899,2.7925,2.7966,2.7991,2.8023,2.8073,2.8114,2.8131,2.8171,2.8199,2.8195,2.821,2.8208,2.8212,2.8124,2.811,2.8213,2.8213,2.8213,2.8213,2.8213,2.8212,2.7832,2.7886,2.7889,2.7953,2.7966,2.8011,2.8028,2.8052,2.8071,2.8127,2.816,2.817,2.8193,2.8235,2.8273,2.8277,2.8293,2.831,2.8312,2.823,2.8218,2.8208,2.8194,2.8313,2.8314,2.8397,2.8398,2.8399]},{"header":{"parameterUnit":"m.s-1","parameterCategory":1,"la1":30.2991,"la2":30.254,"lo1":-89.0895,"lo2":-89.0444,"dy":0.0017,"dx":0.0017,"nx":28,"ny":28,"refTime":"2024-02-22T03:00:00:Z","depth":0,"parameterNumber":3,"parameterNumberName":"V-component_of_WINDS"},"data":[0,0,0,0,0,0,0,0,0,0,0,0,0,0,0,0,0,0,0,0,0,0,0,0,0,0,0,0,0,0,0,0,0,0,0,0,0,0,0,0,0,0,0,0,0,0,0,0,0,0,0,0,0,0,0,0,0,0,3.7381,3.7383,0,3.7499,3.7501,3.7502,3.7503,3.7501,3.75,3.7498,3.7619,3.7624,3.7628,0,0,0,0,0,0,0,0,0,0,0,0,0,3.7157,3.7161,3.7381,3.7383,3.7384,3.7499,3.7501,3.7502,3.7503,3.7501,3.7499,3.7498,3.7618,3.7623,3.7629,0,0,0,0,0,0,0,0,0,0,0,0,0,3.7262,3.7162,3.7381,3.7398,3.7401,3.7499,3.7501,3.7503,3.7504,3.7501,3.7499,3.7497,3.7616,3.7623,3.7629,3.7717,0,0,3.7651,3.7654,0,0,0,0,0,0,0,0,3.7256,3.7271,3.7394,3.7397,3.7401,3.7484,3.7466,3.7575,3.7504,3.7465,3.7498,3.7496,3.7576,3.7586,3.7613,3.7723,3.7728,3.7651,3.7655,3.7658,3.766,0,0,0,0,0,0,0,3.7249,3.7266,3.7428,3.7396,3.74,3.74,3.7413,3.7486,3.7532,3.7468,3.7468,3.7482,3.7577,3.7606,3.7616,3.773,3.7651,3.7657,3.7661,3.7664,3.7919,3.7922,0,0,0,0,0,0,3.7238,3.7259,3.7424,3.7431,3.7322,3.7406,3.742,3.746,3.7531,3.7539,3.7484,3.7482,3.7596,3.7608,3.762,3.7729,3.7658,3.7665,3.7669,3.7917,3.792,3.7923,0,0,0,0,0,0,3.7233,3.7253,3.7419,3.7346,3.7367,3.7413,3.7457,3.7463,3.7492,3.7543,3.7551,3.7506,3.7594,3.7611,3.7694,3.7734,3.7668,3.7674,3.7913,3.7918,3.7921,3.7947,0,0,0,0,0,0,3.7227,3.7251,3.7285,3.7346,3.7371,3.7491,3.7459,3.7467,3.7504,3.7503,3.7565,3.7574,3.7594,3.7683,3.77,3.7742,3.768,3.791,3.7915,3.792,3.7943,3.7952,3.7959,0,0,0,0,0,3.7219,3.7287,3.7287,3.7307,3.7414,3.7493,3.7507,3.7529,3.7507,3.7542,3.7575,3.7572,3.7726,3.7692,3.7711,3.7755,3.7908,3.7914,3.792,3.794,3.795,3.7959,0,0,0,0,0,0,3.7229,3.7296,3.7296,3.7386,3.7434,3.7493,3.7537,3.7539,3.7594,3.759,3.7615,3.7629,3.7712,3.7742,3.7702,3.7845,3.7814,3.7824,3.7823,3.7833,3.7841,3.7833,3.7685,0,0,0,0,0,3.7242,3.7301,3.7355,3.743,3.7454,3.7491,3.7527,3.754,3.759,3.761,3.7649,3.7698,3.7758,3.7797,3.7854,3.7947,3.7961,3.7987,3.7994,3.8001,3.801,3.8062,3.8075,3.7942,3.7942,3.7942,0,0,3.7269,3.7313,3.7348,3.7433,3.7472,3.7532,3.7509,3.7573,3.7619,3.762,3.7702,3.7731,3.7788,3.7876,3.7917,3.7904,3.8049,3.8008,3.8013,3.8019,3.807,3.8082,3.8093,3.7946,3.7945,3.7945,0,0,3.735,3.7388,3.7455,3.7494,3.7553,3.7578,3.7594,3.7653,3.7673,3.7755,3.7758,3.7812,3.7914,3.7955,3.7988,3.8085,3.8085,3.8103,3.8145,3.8196,3.8206,3.8216,3.8252,3.8264,3.8111,3.8111,3.8111,0,3.7376,3.7468,3.7489,3.7555,3.7593,3.7597,3.7665,3.7702,3.7777,3.7803,3.7786,3.7915,3.7953,3.8052,3.8075,3.8102,3.8122,3.8097,3.8203,3.8213,3.8222,3.8257,3.827,3.8113,3.8113,3.8113,3.8112,0,3.7498,3.7562,3.7609,3.7681,3.7724,3.7791,3.7822,3.7863,3.7872,3.7898,3.7982,3.8028,3.8096,3.8119,3.8128,3.822,3.821,3.8198,3.8168,3.8236,3.827,3.8283,3.8116,3.8115,3.8115,3.8114,0,0,3.759,3.7674,3.7691,3.7725,3.779,3.784,3.7906,3.7973,3.8008,3.8059,3.8116,3.8202,3.8192,3.823,3.8244,3.8288,3.8364,3.8271,3.8273,3.8288,3.8469,3.848,3.8495,3.8363,3.8366,3.8368,3.8465,0,3.768,3.7799,3.7821,3.7925,3.7985,3.7989,3.8047,3.8094,3.812,3.8174,3.8203,3.8265,3.8245,3.8269,3.8313,3.8345,3.8401,3.8338,3.8418,3.8421,3.8406,3.8512,3.8523,3.8613,3.8478,3.848,3.8482,0,3.78,3.7855,3.7966,3.8024,3.805,3.8102,3.8166,3.8217,3.827,3.8286,3.8329,3.8338,3.8408,3.8373,3.847,3.8427,3.8461,3.8482,3.8486,3.8496,3.8457,3.8527,3.8642,3.8657,3.8502,3.8501,3.8499,0,3.7859,3.796,3.804,3.8068,3.8138,3.8175,3.8205,3.8256,3.8295,3.8349,3.8375,3.8437,3.8471,3.8519,3.8545,3.8517,3.8641,3.8608,3.8657,3.8657,3.8685,3.8683,3.8809,3.8703,3.8703,3.8702,3.8702,0,3.7958,3.8026,3.8068,3.8117,3.8193,3.8217,3.8292,3.8322,3.8367,3.8422,3.8429,3.8481,3.851,3.8566,3.8586,3.8664,3.8679,3.8695,3.87,3.8696,3.8694,3.872,3.8715,3.8706,3.8705,3.8704,3.8704,0,3.8037,3.8067,3.8155,3.8214,3.823,3.8284,3.8334,3.8383,3.8408,3.8479,3.8496,3.8537,3.8604,3.8633,3.8714,3.8728,3.8818,3.8817,3.8801,3.8803,3.8852,3.8847,3.9,3.9022,3.8899,3.89,3.8901,0,3.8099,3.8152,3.8217,3.8254,3.8286,3.8347,3.8387,3.8411,3.8453,3.8517,3.8558,3.8625,3.868,3.8786,3.8823,3.8885,3.8888,3.8937,3.8897,3.8892,3.8891,3.8889,3.8895,3.8945,3.8946,3.8947,3.8948,0,3.8207,3.822,3.8277,3.8341,3.8388,3.8439,3.8489,3.8519,3.8552,3.8598,3.8666,3.8709,3.8793,3.8859,3.8924,3.8956,3.8958,3.896,3.8975,3.8972,3.8961,3.897,3.8823,3.8957,3.8956,3.8955,3.8955,3.8954,3.8282,3.8329,3.8383,3.8447,3.8487,3.8533,3.8582,3.8614,3.8671,3.8742,3.8753,3.8826,3.8878,3.8966,3.9,3.9058,3.9046,3.9067,3.9073,3.9078,3.9083,3.895,3.9069,3.9069,3.9069,3.9069,3.9068,0,3.8392,3.8426,3.8485,3.8555,3.8606,3.8602,3.8657,3.87,3.8765,3.8813,3.8867,3.8946,3.9011,3.9053,3.9118,3.9156,3.9159,3.9173,3.9172,3.9179,3.9088,3.907,3.917,3.917,3.917,3.917,3.917,3.917,3.8455,3.8536,3.8555,3.8656,3.869,3.8763,3.8795,3.8838,3.8877,3.8965,3.9019,3.9046,3.9092,3.9161,3.922,3.9231,3.9256,3.9271,3.9281,3.9196,3.9185,3.9175,3.9158,3.9275,3.9275,3.9367,3.9368,3.9369]}]]